Weather History for PALH - October, 2012

Change the Weather History Date:

Saturday, October 13, 2012

  Actual Average Record
Temperature  
Mean Temperature 35 °F -  
Max Temperature 37 °F 39 °F 55 °F (2004)
Min Temperature 33 °F 29 °F 19 °F (2001)
Degree Days  
Heating Degree Days 30    
Moisture  
Dew Point 25 °F    
Average Humidity 70    
Maximum Humidity 87    
Minimum Humidity 46    
Precipitation  
Precipitation 0.02 in - - ()
Sea Level Pressure  
Sea Level Pressure 29.19 in    
Wind  
Wind Speed 8 mph (NNE)    
Max Wind Speed 15 mph    
Max Gust Speed 21 mph    
Visibility 6 miles    
Events Fog , Snow    
Averages and records for this station are not official NWS values.
T = Trace of Precipitation, MM = Missing Value Source: NWS Daily Summary

Daily Weather History Graph

Daily Weather History Graph

Search for Another Location

Airport or City:

Trip Planner

Search our weather history database for the weather conditions in past years. The results will help you decide how hot, cold, wet, or windy it might be!

Date:

Astronomy

Oct. 13, 2012 Rise Set
Actual Time 8:38 AM AKDT 6:51 PM AKDT
Civil Twilight 7:54 AM AKDT 7:35 PM AKDT
Nautical Twilight 7:05 AM AKDT 8:25 PM AKDT
Astronomical Twilight 6:14 AM AKDT 9:15 PM AKDT
Moon 6:18 AM AKDT (10/13) 5:53 PM AKDT (10/13)
Length of Visible Light 11h 40m
Length of Day
10h 13m
Waning Crescent, 4% of the Moon is Illuminated
Oct 13
Waning Crescent
Oct 15
New
Oct 21
First Quarter
Oct 29
Full
Nov 6
Last Quarter

Hourly Weather History & Observations

Time (AKDT) Temp. Windchill Dew Point Humidity Pressure Visibility Wind Dir Wind Speed Gust Speed Precip Events Conditions
12:53 AM 34.0 °F 31.0 °F 28.0 °F 79% 29.13 in 10.0 mi NNE 3.5 mph - N/A   Clear
1:53 AM 33.1 °F - 27.0 °F 78% 29.12 in 10.0 mi Calm Calm - N/A   Clear
2:53 AM 35.1 °F 29.3 °F 23.0 °F 61% 29.11 in 10.0 mi North 6.9 mph - 0.00 in Snow Light Snow
3:53 AM 37.0 °F 29.8 °F 21.9 °F 54% 29.11 in 9.0 mi NNE 10.4 mph - 0.00 in Snow Light Snow
4:53 AM 36.0 °F 27.5 °F 18.0 °F 48% 29.11 in 9.0 mi NNE 12.7 mph - 0.00 in Snow Light Snow
5:53 AM 35.1 °F 25.5 °F 17.1 °F 48% 29.11 in 9.0 mi North 15.0 mph 20.7 mph 0.00 in Snow Light Snow
6:53 AM 33.1 °F 25.5 °F 19.0 °F 56% 29.11 in 9.0 mi North 9.2 mph - 0.00 in Snow Light Snow
7:53 AM 34.0 °F 25.0 °F 19.0 °F 54% 29.12 in 9.0 mi North 12.7 mph 18.4 mph 0.00 in Snow Light Snow
8:53 AM 34.0 °F 25.5 °F 18.0 °F 52% 29.13 in 9.0 mi North 11.5 mph - 0.00 in Snow Light Snow
9:53 AM 34.0 °F 25.0 °F 18.0 °F 52% 29.13 in 9.0 mi North 12.7 mph - 0.00 in Snow Light Snow
10:53 AM 35.1 °F 26.4 °F 17.1 °F 48% 29.15 in 9.0 mi North 12.7 mph - 0.00 in Snow Light Snow
11:53 AM 36.0 °F 28.0 °F 17.1 °F 46% 29.16 in 9.0 mi North 11.5 mph - 0.00 in Snow Light Snow
12:53 PM 37.0 °F 31.0 °F 18.0 °F 46% 29.17 in 9.0 mi North 8.1 mph - 0.00 in Snow Light Snow
1:53 PM 37.0 °F 29.8 °F 19.9 °F 50% 29.18 in 9.0 mi NNE 10.4 mph - 0.00 in Snow Light Snow
2:53 PM 37.9 °F 31.5 °F 19.9 °F 48% 29.20 in 10.0 mi NNE 9.2 mph - 0.00 in   Overcast
3:53 PM 37.0 °F 31.0 °F 25.0 °F 62% 29.21 in 6.0 mi NNE 8.1 mph - 0.00 in Snow Light Snow
4:17 PM 35.6 °F 30.7 °F 26.6 °F 70% 29.21 in 2.5 mi NE 5.8 mph - 0.00 in Snow Light Snow
4:21 PM 35.6 °F 29.2 °F 26.6 °F 70% 29.21 in 2.5 mi ENE 8.1 mph - 0.00 in Snow Light Snow
4:31 PM 33.8 °F 28.6 °F 28.4 °F 81% 29.21 in 1.0 mi NNE 5.8 mph - 0.00 in Snow Light Snow
4:38 PM 33.8 °F 27.0 °F 28.4 °F 81% 29.22 in 0.8 mi NNE 8.1 mph - 0.00 in Snow Light Snow
4:53 PM 33.1 °F 27.7 °F 28.9 °F 85% 29.22 in 0.5 mi NNE 5.8 mph - 0.00 in Fog , Snow Snow
5:05 PM 33.8 °F 28.6 °F 28.4 °F 81% 29.22 in 0.5 mi NNE 5.8 mph - 0.00 in Fog , Snow Snow
5:19 PM 33.8 °F 28.6 °F 28.4 °F 81% 29.22 in 0.5 mi NE 5.8 mph - 0.01 in Fog , Snow Snow
5:26 PM 33.8 °F 27.0 °F 28.4 °F 81% 29.22 in 0.2 mi NNE 8.1 mph - 0.02 in Fog , Snow Snow
5:33 PM 33.8 °F 27.0 °F 30.2 °F 87% 29.22 in 0.5 mi NNE 8.1 mph - 0.02 in Fog , Snow Snow
5:53 PM 33.1 °F 24.9 °F 28.9 °F 85% 29.22 in 1.0 mi North 10.4 mph - 0.02 in Snow Light Snow
6:09 PM 33.8 °F 25.8 °F 28.4 °F 81% 29.22 in 0.8 mi North 10.4 mph - 0.00 in Snow Light Snow
6:22 PM 33.8 °F 27.0 °F 28.4 °F 81% 29.22 in 3.0 mi North 8.1 mph - 0.00 in   Overcast
6:53 PM 33.1 °F 25.5 °F 28.9 °F 85% 29.23 in 3.0 mi North 9.2 mph - 0.00 in   Overcast
7:15 PM 33.8 °F 28.6 °F 28.4 °F 81% 29.23 in 10.0 mi NNE 5.8 mph - N/A   Overcast
7:53 PM 33.1 °F 27.7 °F 28.9 °F 85% 29.23 in 10.0 mi North 5.8 mph - N/A   Mostly Cloudy
9:28 PM 33.8 °F 25.3 °F 28.4 °F 81% 29.23 in 10.0 mi NNE 11.5 mph - N/A   Mostly Cloudy
9:48 PM 33.8 °F 25.8 °F 28.4 °F 81% 29.23 in 10.0 mi NNE 10.4 mph - N/A   Mostly Cloudy
9:53 PM 34.0 °F 27.2 °F 28.9 °F 82% 29.23 in 10.0 mi NNE 8.1 mph - N/A   Mostly Cloudy
10:53 PM 34.0 °F 27.2 °F 28.9 °F 82% 29.23 in 10.0 mi NNE 8.1 mph - N/A   Mostly Cloudy
11:08 PM 33.8 °F 25.8 °F 28.4 °F 81% 29.22 in 10.0 mi NNE 10.4 mph - N/A   Scattered Clouds
11:53 PM 34.0 °F 26.6 °F 28.9 °F 82% 29.22 in 10.0 mi NNE 9.2 mph - N/A   Partly Cloudy